Time,TemperatureF,DewpointF,PressureIn,WindDirection,WindDirectionDegrees,WindSpeedMPH,WindSpeedGustMPH,Humidity,HourlyPrecipIn,Conditions,Clouds,dailyrainin,SoftwareType,DateUTC
2013-10-22 00:00:00,46.5,40.0,29.98,SSW,200,3.0,-999.0,78,0.00,,,0.00,WeatherSnoop3.0,2013-10-22 05:00:00,
2013-10-22 00:05:00,46.5,40.0,29.98,WSW,239,1.0,-999.0,78,0.00,,,0.00,WeatherSnoop3.0,2013-10-22 05:05:00,
2013-10-22 00:10:00,46.5,40.0,29.98,West,260,2.0,-999.0,78,0.00,,,0.00,WeatherSnoop3.0,2013-10-22 05:10:00,
2013-10-22 00:15:00,46.7,39.9,29.97,SSW,208,2.0,-999.0,77,0.00,,,0.00,WeatherSnoop3.0,2013-10-22 05:15:00,
2013-10-22 00:20:00,46.9,40.1,29.97,WSW,256,2.0,-999.0,77,0.00,,,0.00,WeatherSnoop3.0,2013-10-22 05:20:00,
2013-10-22 00:30:00,46.8,40.0,29.97,WSW,250,1.0,-999.0,77,0.00,,,0.00,WeatherSnoop3.0,2013-10-22 05:30:00,
2013-10-22 00:35:00,46.8,40.0,29.97,SW,222,2.0,-999.0,77,0.00,,,0.00,WeatherSnoop3.0,2013-10-22 05:35:00,
2013-10-22 00:40:00,46.9,40.1,29.97,SW,236,1.0,-999.0,77,0.00,,,0.00,WeatherSnoop3.0,2013-10-22 05:40:00,
2013-10-22 00:45:00,46.8,40.0,29.97,WSW,249,1.0,-999.0,77,0.00,,,0.00,WeatherSnoop3.0,2013-10-22 05:45:00,
2013-10-22 00:50:00,46.8,40.0,29.96,SSW,198,1.0,-999.0,77,0.00,,,0.00,WeatherSnoop3.0,2013-10-22 05:50:00,
2013-10-22 00:55:00,46.8,40.0,29.96,SW,222,0.0,-999.0,77,0.00,,,0.00,WeatherSnoop3.0,2013-10-22 05:55:00,
2013-10-22 01:00:00,46.8,40.0,29.96,SW,215,4.0,-999.0,77,0.00,,,0.00,WeatherSnoop3.0,2013-10-22 06:00:00,
2013-10-22 01:05:00,46.7,39.9,29.96,WSW,255,1.0,-999.0,77,0.00,,,0.00,WeatherSnoop3.0,2013-10-22 06:05:00,
2013-10-22 01:10:00,46.6,39.8,29.96,SSW,212,0.0,-999.0,77,0.00,,,0.00,WeatherSnoop3.0,2013-10-22 06:10:00,
2013-10-22 01:15:00,46.4,39.9,29.96,WSW,256,0.0,-999.0,78,0.00,,,0.00,WeatherSnoop3.0,2013-10-22 06:15:00,
2013-10-22 01:20:00,46.3,39.8,29.96,SSW,211,2.0,-999.0,78,0.00,,,0.00,WeatherSnoop3.0,2013-10-22 06:20:00,
2013-10-22 01:25:00,46.0,39.9,29.96,WSW,256,1.0,-999.0,79,0.00,,,0.00,WeatherSnoop3.0,2013-10-22 06:25:00,
2013-10-22 01:30:00,45.7,39.9,29.96,SSW,198,2.0,-999.0,80,0.00,,,0.00,WeatherSnoop3.0,2013-10-22 06:30:00,
2013-10-22 01:35:00,45.6,39.8,29.96,SW,223,0.0,-999.0,80,0.00,,,0.00,WeatherSnoop3.0,2013-10-22 06:35:00,
2013-10-22 01:40:00,45.5,39.7,29.96,SSW,205,0.0,-999.0,80,0.00,,,0.00,WeatherSnoop3.0,2013-10-22 06:40:00,
2013-10-22 01:45:00,45.4,39.6,29.96,WSW,242,0.0,-999.0,80,0.00,,,0.00,WeatherSnoop3.0,2013-10-22 06:45:00,
2013-10-22 01:50:00,45.3,39.8,29.96,WSW,245,0.0,-999.0,81,0.00,,,0.00,WeatherSnoop3.0,2013-10-22 06:50:00,
2013-10-22 01:55:00,45.2,39.7,29.96,SW,236,1.0,-999.0,81,0.00,,,0.00,WeatherSnoop3.0,2013-10-22 06:55:00,
2013-10-22 02:00:00,45.3,39.8,29.95,SW,221,1.0,-999.0,81,0.00,,,0.00,WeatherSnoop3.0,2013-10-22 07:00:00,
2013-10-22 02:05:00,45.3,39.5,29.95,SW,224,2.0,-999.0,80,0.00,,,0.00,WeatherSnoop3.0,2013-10-22 07:05:00,
2013-10-22 02:10:00,45.6,39.8,29.95,SW,222,3.0,-999.0,80,0.00,,,0.00,WeatherSnoop3.0,2013-10-22 07:10:00,
2013-10-22 02:15:00,45.7,39.6,29.95,SW,236,4.0,-999.0,79,0.00,,,0.00,WeatherSnoop3.0,2013-10-22 07:15:00,
2013-10-22 02:20:00,45.7,39.6,29.95,SW,222,1.0,-999.0,79,0.00,,,0.00,WeatherSnoop3.0,2013-10-22 07:20:00,
2013-10-22 02:25:00,45.5,39.7,29.95,SW,224,1.0,-999.0,80,0.00,,,0.00,WeatherSnoop3.0,2013-10-22 07:25:00,
2013-10-22 02:30:00,45.4,39.6,29.95,SSW,208,0.0,-999.0,80,0.00,,,0.00,WeatherSnoop3.0,2013-10-22 07:30:00,
2013-10-22 02:35:00,45.3,39.5,29.95,SW,226,0.0,-999.0,80,0.00,,,0.00,WeatherSnoop3.0,2013-10-22 07:35:00,
2013-10-22 02:40:00,45.2,39.7,29.95,WSW,239,1.0,-999.0,81,0.00,,,0.00,WeatherSnoop3.0,2013-10-22 07:40:00,
2013-10-22 02:45:00,45.3,39.8,29.95,SW,217,0.0,-999.0,81,0.00,,,0.00,WeatherSnoop3.0,2013-10-22 07:45:00,
2013-10-22 02:50:00,45.5,40.0,29.95,SW,224,2.0,-999.0,81,0.00,,,0.00,WeatherSnoop3.0,2013-10-22 07:50:00,
2013-10-22 02:55:00,45.7,39.9,29.94,SSW,208,1.0,-999.0,80,0.00,,,0.00,WeatherSnoop3.0,2013-10-22 07:55:00,
2013-10-22 03:00:00,46.0,40.2,29.95,SW,219,0.0,-999.0,80,0.00,,,0.00,WeatherSnoop3.0,2013-10-22 08:00:00,
2013-10-22 03:05:00,46.2,40.4,29.95,SW,222,0.0,-999.0,80,0.00,,,0.00,WeatherSnoop3.0,2013-10-22 08:05:00,
2013-10-22 03:10:00,46.4,40.2,29.95,SSW,210,2.0,-999.0,79,0.00,,,0.00,WeatherSnoop3.0,2013-10-22 08:10:00,
2013-10-22 03:15:00,46.6,40.4,29.95,WSW,239,1.0,-999.0,79,0.00,,,0.00,WeatherSnoop3.0,2013-10-22 08:15:00,
2013-10-22 03:20:00,46.9,40.4,29.95,WSW,249,1.0,-999.0,78,0.00,,,0.00,WeatherSnoop3.0,2013-10-22 08:20:00,
2013-10-22 03:25:00,47.2,40.7,29.95,WSW,243,2.0,-999.0,78,0.00,,,0.00,WeatherSnoop3.0,2013-10-22 08:25:00,
2013-10-22 03:30:00,47.4,40.6,29.94,WSW,250,1.0,-999.0,77,0.00,,,0.00,WeatherSnoop3.0,2013-10-22 08:30:00,
2013-10-22 03:35:00,47.6,40.8,29.94,SW,229,2.0,-999.0,77,0.00,,,0.00,WeatherSnoop3.0,2013-10-22 08:35:00,
2013-10-22 03:40:00,47.9,41.0,29.94,West,259,1.0,-999.0,77,0.00,,,0.00,WeatherSnoop3.0,2013-10-22 08:40:00,
2013-10-22 03:45:00,48.0,41.1,29.94,WSW,249,2.0,-999.0,77,0.00,,,0.00,WeatherSnoop3.0,2013-10-22 08:45:00,
2013-10-22 03:50:00,48.1,41.2,29.94,WSW,249,1.0,-999.0,77,0.00,,,0.00,WeatherSnoop3.0,2013-10-22 08:50:00,
2013-10-22 03:55:00,48.2,41.3,29.94,West,266,1.0,-999.0,77,0.00,,,0.00,WeatherSnoop3.0,2013-10-22 08:55:00,
2013-10-22 04:00:00,48.2,41.3,29.94,WSW,240,1.0,-999.0,77,0.00,,,0.00,WeatherSnoop3.0,2013-10-22 09:00:00,
2013-10-22 04:05:00,48.2,41.3,29.94,WSW,252,2.0,-999.0,77,0.00,,,0.00,WeatherSnoop3.0,2013-10-22 09:05:00,
2013-10-22 04:10:00,48.2,41.3,29.94,West,271,0.0,-999.0,77,0.00,,,0.00,WeatherSnoop3.0,2013-10-22 09:10:00,
2013-10-22 04:15:00,48.3,41.1,29.93,West,271,1.0,-999.0,76,0.00,,,0.00,WeatherSnoop3.0,2013-10-22 09:15:00,
2013-10-22 04:20:00,48.4,40.8,29.94,West,260,2.0,-999.0,75,0.00,,,0.00,WeatherSnoop3.0,2013-10-22 09:20:00,
2013-10-22 04:25:00,48.6,41.0,29.94,West,264,0.0,-999.0,75,0.00,,,0.00,WeatherSnoop3.0,2013-10-22 09:25:00,
2013-10-22 04:30:00,48.7,41.1,29.93,WSW,257,1.0,-999.0,75,0.00,,,0.00,WeatherSnoop3.0,2013-10-22 09:30:00,
2013-10-22 04:35:00,48.7,41.1,29.93,WSW,255,2.0,-999.0,75,0.00,,,0.00,WeatherSnoop3.0,2013-10-22 09:35:00,
2013-10-22 04:40:00,48.8,40.9,29.93,WSW,257,2.0,-999.0,74,0.00,,,0.00,WeatherSnoop3.0,2013-10-22 09:40:00,
2013-10-22 04:45:00,49.0,41.1,29.93,WSW,242,2.0,-999.0,74,0.00,,,0.00,WeatherSnoop3.0,2013-10-22 09:45:00,
2013-10-22 04:56:00,49.4,40.8,29.93,West,270,0.0,-999.0,72,0.00,,,0.00,WeatherSnoop3.0,2013-10-22 09:56:00,
2013-10-22 05:05:00,49.6,40.9,29.92,West,265,2.0,-999.0,72,0.00,,,0.00,WeatherSnoop3.0,2013-10-22 10:05:00,
2013-10-22 05:10:00,49.6,40.9,29.92,WSW,250,2.0,-999.0,72,0.00,,,0.00,WeatherSnoop3.0,2013-10-22 10:10:00,
2013-10-22 05:16:00,49.7,40.7,29.92,WSW,238,1.0,-999.0,71,0.00,,,0.00,WeatherSnoop3.0,2013-10-22 10:16:00,
2013-10-22 05:25:00,49.7,41.0,29.92,WSW,250,2.0,-999.0,72,0.00,,,0.00,WeatherSnoop3.0,2013-10-22 10:25:00,
2013-10-22 05:30:00,49.6,40.9,29.92,WSW,251,1.0,-999.0,72,0.00,,,0.00,WeatherSnoop3.0,2013-10-22 10:30:00,
2013-10-22 05:35:00,49.4,40.8,29.92,WSW,257,1.0,-999.0,72,0.00,,,0.00,WeatherSnoop3.0,2013-10-22 10:35:00,
2013-10-22 05:40:00,49.2,40.6,29.92,WSW,248,2.0,-999.0,72,0.00,,,0.00,WeatherSnoop3.0,2013-10-22 10:40:00,
2013-10-22 05:45:00,48.8,40.5,29.92,West,259,2.0,-999.0,73,0.00,,,0.00,WeatherSnoop3.0,2013-10-22 10:45:00,
2013-10-22 05:50:00,48.4,40.5,29.92,West,262,2.0,-999.0,74,0.00,,,0.00,WeatherSnoop3.0,2013-10-22 10:50:00,
2013-10-22 05:55:00,48.0,40.5,29.92,WSW,252,2.0,-999.0,75,0.00,,,0.00,WeatherSnoop3.0,2013-10-22 10:55:00,
2013-10-22 06:00:00,47.9,40.4,29.92,West,264,1.0,-999.0,75,0.00,,,0.00,WeatherSnoop3.0,2013-10-22 11:00:00,
2013-10-22 06:05:00,47.7,40.5,29.92,WSW,257,1.0,-999.0,76,0.00,,,0.00,WeatherSnoop3.0,2013-10-22 11:05:00,
2013-10-22 06:10:00,47.6,40.4,29.92,West,273,1.0,-999.0,76,0.00,,,0.00,WeatherSnoop3.0,2013-10-22 11:10:00,
2013-10-22 06:15:00,47.4,40.2,29.92,West,264,2.0,-999.0,76,0.00,,,0.00,WeatherSnoop3.0,2013-10-22 11:15:00,
2013-10-22 06:20:00,47.3,40.1,29.92,West,264,1.0,-999.0,76,0.00,,,0.00,WeatherSnoop3.0,2013-10-22 11:20:00,
2013-10-22 06:25:00,47.2,40.0,29.92,WSW,248,1.0,-999.0,76,0.00,,,0.00,WeatherSnoop3.0,2013-10-22 11:25:00,
2013-10-22 06:30:00,47.1,39.9,29.93,West,260,2.0,-999.0,76,0.00,,,0.00,WeatherSnoop3.0,2013-10-22 11:30:00,
2013-10-22 06:35:00,46.9,40.1,29.93,West,263,1.0,-999.0,77,0.00,,,0.00,WeatherSnoop3.0,2013-10-22 11:35:00,
2013-10-22 06:40:00,46.9,40.1,29.92,West,269,1.0,-999.0,77,0.00,,,0.00,WeatherSnoop3.0,2013-10-22 11:40:00,
2013-10-22 06:45:00,46.8,40.3,29.92,West,263,1.0,-999.0,78,0.00,,,0.00,WeatherSnoop3.0,2013-10-22 11:45:00,
2013-10-22 06:50:00,46.8,40.3,29.93,West,267,1.0,-999.0,78,0.00,,,0.00,WeatherSnoop3.0,2013-10-22 11:50:00,
2013-10-22 06:55:00,46.7,40.2,29.93,West,265,2.0,-999.0,78,0.00,,,0.00,WeatherSnoop3.0,2013-10-22 11:55:00,
2013-10-22 07:00:00,46.4,40.2,29.93,West,260,2.0,-999.0,79,0.00,,,0.00,WeatherSnoop3.0,2013-10-22 12:00:00,
2013-10-22 07:05:00,46.1,40.0,29.93,West,270,1.0,-999.0,79,0.00,,,0.00,WeatherSnoop3.0,2013-10-22 12:05:00,
2013-10-22 07:10:00,46.0,39.9,29.93,West,260,2.0,-999.0,79,0.00,,,0.00,WeatherSnoop3.0,2013-10-22 12:10:00,
2013-10-22 07:15:00,45.9,40.1,29.93,West,263,1.0,-999.0,80,0.00,,,0.00,WeatherSnoop3.0,2013-10-22 12:15:00,
2013-10-22 07:20:00,45.7,39.9,29.93,West,260,1.0,-999.0,80,0.00,,,0.00,WeatherSnoop3.0,2013-10-22 12:20:00,
2013-10-22 07:25:00,45.6,39.8,29.92,WSW,248,2.0,-999.0,80,0.00,,,0.00,WeatherSnoop3.0,2013-10-22 12:25:00,
2013-10-22 07:30:00,45.4,39.9,29.93,WSW,256,1.0,-999.0,81,0.00,,,0.00,WeatherSnoop3.0,2013-10-22 12:30:00,
2013-10-22 07:35:00,45.4,39.9,29.93,WSW,256,1.0,-999.0,81,0.00,,,0.00,WeatherSnoop3.0,2013-10-22 12:35:00,
2013-10-22 07:40:00,45.4,39.9,29.93,West,266,1.0,-999.0,81,0.00,,,0.00,WeatherSnoop3.0,2013-10-22 12:40:00,
2013-10-22 07:45:00,45.5,40.0,29.93,West,270,1.0,-999.0,81,0.00,,,0.00,WeatherSnoop3.0,2013-10-22 12:45:00,
2013-10-22 07:50:00,45.5,40.0,29.93,West,266,1.0,-999.0,81,0.00,,,0.00,WeatherSnoop3.0,2013-10-22 12:50:00,
2013-10-22 07:55:00,45.6,40.1,29.94,West,266,1.0,-999.0,81,0.00,,,0.00,WeatherSnoop3.0,2013-10-22 12:55:00,
2013-10-22 08:00:00,45.6,40.1,29.94,West,270,1.0,-999.0,81,0.00,,,0.00,WeatherSnoop3.0,2013-10-22 13:00:00,
2013-10-22 08:05:00,45.6,40.1,29.94,West,264,1.0,-999.0,81,0.00,,,0.00,WeatherSnoop3.0,2013-10-22 13:05:00,
2013-10-22 08:10:00,45.6,40.1,29.94,West,264,1.0,-999.0,81,0.00,,,0.00,WeatherSnoop3.0,2013-10-22 13:10:00,
2013-10-22 08:15:00,45.7,40.5,29.94,West,266,1.0,-999.0,82,0.00,,,0.00,WeatherSnoop3.0,2013-10-22 13:15:00,
2013-10-22 08:20:00,45.7,40.2,29.95,West,278,0.0,-999.0,81,0.00,,,0.00,WeatherSnoop3.0,2013-10-22 13:20:00,
2013-10-22 08:25:00,45.9,40.4,29.95,West,264,0.0,-999.0,81,0.00,,,0.00,WeatherSnoop3.0,2013-10-22 13:25:00,
2013-10-22 08:30:00,46.2,40.7,29.95,WSW,256,2.0,-999.0,81,0.00,,,0.00,WeatherSnoop3.0,2013-10-22 13:30:00,
2013-10-22 08:35:00,46.5,41.0,29.95,West,262,0.0,-999.0,81,0.00,,,0.00,WeatherSnoop3.0,2013-10-22 13:35:00,
2013-10-22 08:40:00,46.8,41.3,29.95,West,267,0.0,-999.0,81,0.00,,,0.00,WeatherSnoop3.0,2013-10-22 13:40:00,
2013-10-22 08:45:00,47.0,41.5,29.95,West,266,0.0,-999.0,81,0.00,,,0.00,WeatherSnoop3.0,2013-10-22 13:45:00,
2013-10-22 08:50:00,47.3,41.8,29.95,SW,236,0.0,-999.0,81,0.00,,,0.00,WeatherSnoop3.0,2013-10-22 13:50:00,
2013-10-22 08:55:00,47.6,42.1,29.95,West,260,0.0,-999.0,81,0.00,,,0.00,WeatherSnoop3.0,2013-10-22 13:55:00,
2013-10-22 09:00:00,48.2,42.3,29.95,NW,323,0.0,-999.0,80,0.00,,,0.00,WeatherSnoop3.0,2013-10-22 14:00:00,
2013-10-22 09:05:00,48.8,42.6,29.95,WNW,295,0.0,-999.0,79,0.00,,,0.00,WeatherSnoop3.0,2013-10-22 14:05:00,
2013-10-22 09:10:00,49.4,43.2,29.95,East,84,0.0,-999.0,79,0.00,,,0.00,WeatherSnoop3.0,2013-10-22 14:10:00,
2013-10-22 09:15:00,50.2,43.6,29.96,East,92,0.0,-999.0,78,0.00,,,0.00,WeatherSnoop3.0,2013-10-22 14:15:00,
2013-10-22 09:20:00,51.1,44.1,29.96,SW,232,0.0,-999.0,77,0.00,,,0.00,WeatherSnoop3.0,2013-10-22 14:20:00,
2013-10-22 09:25:00,52.1,44.4,29.96,West,278,0.0,-999.0,75,0.00,,,0.00,WeatherSnoop3.0,2013-10-22 14:25:00,
2013-10-22 09:30:00,53.1,44.3,29.96,NNE,23,2.0,-999.0,72,0.00,,,0.00,WeatherSnoop3.0,2013-10-22 14:30:00,
2013-10-22 09:35:00,54.1,44.9,29.96,SSE,150,1.0,-999.0,71,0.00,,,0.00,WeatherSnoop3.0,2013-10-22 14:35:00,
2013-10-22 09:40:00,54.8,44.8,29.96,NW,324,1.0,-999.0,69,0.00,,,0.00,WeatherSnoop3.0,2013-10-22 14:40:00,
2013-10-22 09:45:00,55.4,45.0,29.96,SW,229,0.0,-999.0,68,0.00,,,0.00,WeatherSnoop3.0,2013-10-22 14:45:00,
2013-10-22 09:50:00,55.9,45.1,29.97,SE,128,0.0,-999.0,67,0.00,,,0.00,WeatherSnoop3.0,2013-10-22 14:50:00,
2013-10-22 09:55:00,56.3,44.7,29.96,West,275,1.0,-999.0,65,0.00,,,0.00,WeatherSnoop3.0,2013-10-22 14:55:00,
2013-10-22 10:00:00,56.8,45.2,29.97,ESE,103,1.0,-999.0,65,0.00,,,0.00,WeatherSnoop3.0,2013-10-22 15:00:00,
2013-10-22 10:05:00,57.3,44.8,29.97,West,271,1.0,-999.0,63,0.00,,,0.00,WeatherSnoop3.0,2013-10-22 15:05:00,
2013-10-22 10:10:00,57.7,44.8,29.97,NNE,32,2.0,-999.0,62,0.00,,,0.00,WeatherSnoop3.0,2013-10-22 15:10:00,
2013-10-22 10:15:00,58.1,45.6,29.97,WNW,297,2.0,-999.0,63,0.00,,,0.00,WeatherSnoop3.0,2013-10-22 15:15:00,
2013-10-22 10:20:00,58.8,45.8,29.97,NNW,342,3.0,-999.0,62,0.00,,,0.00,WeatherSnoop3.0,2013-10-22 15:20:00,
2013-10-22 10:25:00,59.2,46.2,29.96,SSE,149,1.0,-999.0,62,0.00,,,0.00,WeatherSnoop3.0,2013-10-22 15:25:00,
2013-10-22 10:30:00,59.7,45.8,29.97,SSW,212,0.0,-999.0,60,0.00,,,0.00,WeatherSnoop3.0,2013-10-22 15:30:00,
2013-10-22 10:35:00,60.4,46.4,29.96,South,174,0.0,-999.0,60,0.00,,,0.00,WeatherSnoop3.0,2013-10-22 15:35:00,
2013-10-22 10:40:00,61.1,46.2,29.97,North,349,5.0,-999.0,58,0.00,,,0.00,WeatherSnoop3.0,2013-10-22 15:40:00,
2013-10-22 10:45:00,61.7,45.4,29.97,NNE,18,3.0,-999.0,55,0.00,,,0.00,WeatherSnoop3.0,2013-10-22 15:45:00,
2013-10-22 10:50:00,61.7,44.9,29.97,ENE,72,0.0,-999.0,54,0.00,,,0.00,WeatherSnoop3.0,2013-10-22 15:50:00,
2013-10-22 10:55:00,61.9,45.6,29.97,NE,40,3.0,-999.0,55,0.00,,,0.00,WeatherSnoop3.0,2013-10-22 15:55:00,
2013-10-22 11:00:00,62.4,45.5,29.97,NNW,338,6.0,-999.0,54,0.00,,,0.00,WeatherSnoop3.0,2013-10-22 16:00:00,
2013-10-22 11:05:00,62.6,45.2,29.97,SSW,200,0.0,-999.0,53,0.00,,,0.00,WeatherSnoop3.0,2013-10-22 16:05:00,
2013-10-22 11:10:00,62.9,45.0,29.97,NW,308,6.0,-999.0,52,0.00,,,0.00,WeatherSnoop3.0,2013-10-22 16:10:00,
2013-10-22 11:15:00,63.0,45.1,29.96,NE,53,2.0,-999.0,52,0.00,,,0.00,WeatherSnoop3.0,2013-10-22 16:15:00,
2013-10-22 11:20:00,63.4,45.5,29.97,NNE,32,2.0,-999.0,52,0.00,,,0.00,WeatherSnoop3.0,2013-10-22 16:20:00,
2013-10-22 11:25:00,63.7,45.2,29.97,NE,55,2.0,-999.0,51,0.00,,,0.00,WeatherSnoop3.0,2013-10-22 16:25:00,
2013-10-22 11:30:00,64.1,45.1,29.97,North,8,1.0,-999.0,50,0.00,,,0.00,WeatherSnoop3.0,2013-10-22 16:30:00,
2013-10-22 11:35:00,64.5,45.4,29.97,NE,46,2.0,-999.0,50,0.00,,,0.00,WeatherSnoop3.0,2013-10-22 16:35:00,
2013-10-22 11:40:00,65.1,45.5,29.97,NW,324,4.0,-999.0,49,0.00,,,0.00,WeatherSnoop3.0,2013-10-22 16:40:00,
2013-10-22 11:45:00,64.8,44.6,29.97,ENE,60,3.0,-999.0,48,0.00,,,0.00,WeatherSnoop3.0,2013-10-22 16:45:00,
2013-10-22 11:50:00,65.0,44.8,29.97,ENE,61,2.0,-999.0,48,0.00,,,0.00,WeatherSnoop3.0,2013-10-22 16:50:00,
2013-10-22 11:55:00,65.4,44.6,29.97,NNW,345,3.0,-999.0,47,0.00,,,0.00,WeatherSnoop3.0,2013-10-22 16:55:00,
2013-10-22 12:00:00,65.4,45.2,29.97,NE,53,4.0,-999.0,48,0.00,,,0.00,WeatherSnoop3.0,2013-10-22 17:00:00,
2013-10-22 12:05:00,65.9,45.1,29.97,NNE,13,11.0,-999.0,47,0.00,,,0.00,WeatherSnoop3.0,2013-10-22 17:05:00,
2013-10-22 12:10:00,66.4,45.6,29.97,South,180,0.0,-999.0,47,0.00,,,0.00,WeatherSnoop3.0,2013-10-22 17:10:00,
2013-10-22 12:15:00,67.1,45.0,29.97,ENE,60,4.0,-999.0,45,0.00,,,0.00,WeatherSnoop3.0,2013-10-22 17:15:00,
2013-10-22 12:20:00,67.3,45.8,29.97,NNE,29,5.0,-999.0,46,0.00,,,0.00,WeatherSnoop3.0,2013-10-22 17:20:00,
2013-10-22 12:25:00,67.6,44.9,29.97,West,270,1.0,-999.0,44,0.00,,,0.00,WeatherSnoop3.0,2013-10-22 17:25:00,
2013-10-22 12:30:00,68.0,45.3,29.96,NNE,23,3.0,-999.0,44,0.00,,,0.00,WeatherSnoop3.0,2013-10-22 17:30:00,
2013-10-22 12:35:00,68.0,44.7,29.96,East,89,4.0,-999.0,43,0.00,,,0.00,WeatherSnoop3.0,2013-10-22 17:35:00,
2013-10-22 12:40:00,68.3,45.5,29.96,SSE,155,0.0,-999.0,44,0.00,,,0.00,WeatherSnoop3.0,2013-10-22 17:40:00,
2013-10-22 12:45:00,68.4,43.8,29.96,NE,36,6.0,-999.0,41,0.00,,,0.00,WeatherSnoop3.0,2013-10-22 17:45:00,
2013-10-22 12:50:00,69.0,45.6,29.96,NNE,13,4.0,-999.0,43,0.00,,,0.00,WeatherSnoop3.0,2013-10-22 17:50:00,
2013-10-22 12:55:00,69.2,46.4,29.96,North,4,5.0,-999.0,44,0.00,,,0.00,WeatherSnoop3.0,2013-10-22 17:55:00,
2013-10-22 13:00:00,69.4,45.3,29.95,West,263,2.0,-999.0,42,0.00,,,0.00,WeatherSnoop3.0,2013-10-22 18:00:00,
2013-10-22 13:05:00,69.3,44.6,29.95,East,101,2.0,-999.0,41,0.00,,,0.00,WeatherSnoop3.0,2013-10-22 18:05:00,
2013-10-22 13:10:00,69.2,44.5,29.95,SSE,155,1.0,-999.0,41,0.00,,,0.00,WeatherSnoop3.0,2013-10-22 18:10:00,
2013-10-22 13:15:00,69.9,45.1,29.95,SW,222,3.0,-999.0,41,0.00,,,0.00,WeatherSnoop3.0,2013-10-22 18:15:00,
2013-10-22 13:20:00,70.1,44.6,29.95,NW,312,3.0,-999.0,40,0.00,,,0.00,WeatherSnoop3.0,2013-10-22 18:20:00,
2013-10-22 13:25:00,69.8,43.7,29.95,NNE,17,4.0,-999.0,39,0.00,,,0.00,WeatherSnoop3.0,2013-10-22 18:25:00,
2013-10-22 13:30:00,69.7,44.3,29.94,SW,222,2.0,-999.0,40,0.00,,,0.00,WeatherSnoop3.0,2013-10-22 18:30:00,
2013-10-22 13:35:00,69.6,44.8,29.94,ENE,59,4.0,-999.0,41,0.00,,,0.00,WeatherSnoop3.0,2013-10-22 18:35:00,
2013-10-22 13:40:00,69.6,44.2,29.94,NNW,333,6.0,-999.0,40,0.00,,,0.00,WeatherSnoop3.0,2013-10-22 18:40:00,
2013-10-22 13:45:00,69.4,44.7,29.94,NE,46,7.0,-999.0,41,0.00,,,0.00,WeatherSnoop3.0,2013-10-22 18:45:00,
2013-10-22 13:50:00,69.5,44.1,29.94,ENE,73,4.0,-999.0,40,0.00,,,0.00,WeatherSnoop3.0,2013-10-22 18:50:00,
2013-10-22 13:55:00,69.5,43.4,29.94,NNE,24,4.0,-999.0,39,0.00,,,0.00,WeatherSnoop3.0,2013-10-22 18:55:00,
2013-10-22 14:00:00,70.1,45.3,29.93,SSE,155,3.0,-999.0,41,0.00,,,0.00,WeatherSnoop3.0,2013-10-22 19:00:00,
2013-10-22 14:05:00,70.2,43.4,29.93,NNE,23,6.0,-999.0,38,0.00,,,0.00,WeatherSnoop3.0,2013-10-22 19:05:00,
2013-10-22 14:10:00,70.1,44.6,29.93,WNW,283,0.0,-999.0,40,0.00,,,0.00,WeatherSnoop3.0,2013-10-22 19:10:00,
2013-10-22 14:15:00,70.3,44.8,29.93,West,269,2.0,-999.0,40,0.00,,,0.00,WeatherSnoop3.0,2013-10-22 19:15:00,
2013-10-22 14:20:00,70.7,43.8,29.93,WNW,287,3.0,-999.0,38,0.00,,,0.00,WeatherSnoop3.0,2013-10-22 19:20:00,
2013-10-22 14:25:00,70.3,43.5,29.93,SW,224,2.0,-999.0,38,0.00,,,0.00,WeatherSnoop3.0,2013-10-22 19:25:00,
2013-10-22 14:30:00,70.7,45.2,29.92,WSW,244,2.0,-999.0,40,0.00,,,0.00,WeatherSnoop3.0,2013-10-22 19:30:00,
2013-10-22 14:35:00,71.2,44.3,29.92,WSW,252,4.0,-999.0,38,0.00,,,0.00,WeatherSnoop3.0,2013-10-22 19:35:00,
2013-10-22 14:40:00,71.2,44.3,29.92,NE,41,6.0,-999.0,38,0.00,,,0.00,WeatherSnoop3.0,2013-10-22 19:40:00,
2013-10-22 14:45:00,70.8,44.6,29.92,West,278,2.0,-999.0,39,0.00,,,0.00,WeatherSnoop3.0,2013-10-22 19:45:00,
2013-10-22 14:50:00,71.0,45.5,29.92,SW,229,5.0,-999.0,40,0.00,,,0.00,WeatherSnoop3.0,2013-10-22 19:50:00,
2013-10-22 14:55:00,71.6,43.9,29.92,East,93,2.0,-999.0,37,0.00,,,0.00,WeatherSnoop3.0,2013-10-22 19:55:00,
2013-10-22 15:00:00,71.5,44.5,29.92,SW,226,1.0,-999.0,38,0.00,,,0.00,WeatherSnoop3.0,2013-10-22 20:00:00,
2013-10-22 15:05:00,71.4,45.1,29.92,West,259,3.0,-999.0,39,0.00,,,0.00,WeatherSnoop3.0,2013-10-22 20:05:00,
2013-10-22 15:10:00,71.6,44.6,29.92,NW,322,2.0,-999.0,38,0.00,,,0.00,WeatherSnoop3.0,2013-10-22 20:10:00,
2013-10-22 15:15:00,71.6,45.3,29.92,SE,126,2.0,-999.0,39,0.00,,,0.00,WeatherSnoop3.0,2013-10-22 20:15:00,
2013-10-22 15:20:00,71.6,43.9,29.92,East,81,4.0,-999.0,37,0.00,,,0.00,WeatherSnoop3.0,2013-10-22 20:20:00,
2013-10-22 15:25:00,71.7,44.0,29.92,West,271,1.0,-999.0,37,0.00,,,0.00,WeatherSnoop3.0,2013-10-22 20:25:00,
2013-10-22 15:30:00,71.8,44.8,29.92,ENE,68,1.0,-999.0,38,0.00,,,0.00,WeatherSnoop3.0,2013-10-22 20:30:00,
2013-10-22 15:35:00,71.7,44.0,29.92,East,84,1.0,-999.0,37,0.00,,,0.00,WeatherSnoop3.0,2013-10-22 20:35:00,
2013-10-22 15:40:00,71.7,44.0,29.92,NW,304,0.0,-999.0,37,0.00,,,0.00,WeatherSnoop3.0,2013-10-22 20:40:00,
2013-10-22 15:45:00,71.8,44.1,29.92,North,354,2.0,-999.0,37,0.00,,,0.00,WeatherSnoop3.0,2013-10-22 20:45:00,
2013-10-22 15:50:00,71.4,44.5,29.92,WNW,283,3.0,-999.0,38,0.00,,,0.00,WeatherSnoop3.0,2013-10-22 20:50:00,
2013-10-22 15:55:00,70.8,43.9,29.92,East,91,0.0,-999.0,38,0.00,,,0.00,WeatherSnoop3.0,2013-10-22 20:55:00,
2013-10-22 16:00:00,70.9,44.7,29.92,West,262,5.0,-999.0,39,0.00,,,0.00,WeatherSnoop3.0,2013-10-22 21:00:00,
2013-10-22 16:05:00,70.3,43.5,29.92,ENE,67,1.0,-999.0,38,0.00,,,0.00,WeatherSnoop3.0,2013-10-22 21:05:00,
2013-10-22 16:10:00,69.0,43.7,29.93,East,81,3.0,-999.0,40,0.00,,,0.00,WeatherSnoop3.0,2013-10-22 21:10:00,
2013-10-22 16:15:00,68.2,43.6,29.93,NE,53,1.0,-999.0,41,0.00,,,0.00,WeatherSnoop3.0,2013-10-22 21:15:00,
2013-10-22 16:20:00,68.3,43.7,29.93,SSW,208,0.0,-999.0,41,0.00,,,0.00,WeatherSnoop3.0,2013-10-22 21:20:00,
2013-10-22 16:25:00,68.3,43.7,29.93,North,9,5.0,-999.0,41,0.00,,,0.00,WeatherSnoop3.0,2013-10-22 21:25:00,
2013-10-22 16:30:00,67.6,43.1,29.93,East,91,6.0,-999.0,41,0.00,,,0.00,WeatherSnoop3.0,2013-10-22 21:30:00,
2013-10-22 16:35:00,67.3,43.4,29.93,ENE,77,4.0,-999.0,42,0.00,,,0.00,WeatherSnoop3.0,2013-10-22 21:35:00,
2013-10-22 16:40:00,68.1,43.5,29.93,NE,46,4.0,-999.0,41,0.00,,,0.00,WeatherSnoop3.0,2013-10-22 21:40:00,
2013-10-22 16:45:00,67.5,43.0,29.93,North,11,6.0,-999.0,41,0.00,,,0.00,WeatherSnoop3.0,2013-10-22 21:45:00,
2013-10-22 16:50:00,66.6,42.8,29.93,WNW,287,2.0,-999.0,42,0.00,,,0.00,WeatherSnoop3.0,2013-10-22 21:50:00,
2013-10-22 16:55:00,66.3,43.1,29.93,WNW,289,1.0,-999.0,43,0.00,,,0.00,WeatherSnoop3.0,2013-10-22 21:55:00,
2013-10-22 17:00:00,66.0,43.5,29.93,East,89,2.0,-999.0,44,0.00,,,0.00,WeatherSnoop3.0,2013-10-22 22:00:00,
2013-10-22 17:05:00,65.7,43.2,29.93,WSW,240,2.0,-999.0,44,0.00,,,0.00,WeatherSnoop3.0,2013-10-22 22:05:00,
2013-10-22 17:10:00,65.9,43.4,29.93,NE,53,1.0,-999.0,44,0.00,,,0.00,WeatherSnoop3.0,2013-10-22 22:10:00,
2013-10-22 17:15:00,65.9,44.0,29.93,NNE,32,1.0,-999.0,45,0.00,,,0.00,WeatherSnoop3.0,2013-10-22 22:15:00,
2013-10-22 17:20:00,66.2,44.2,29.93,ENE,60,0.0,-999.0,45,0.00,,,0.00,WeatherSnoop3.0,2013-10-22 22:20:00,
2013-10-22 17:25:00,66.9,44.3,29.93,NE,49,1.0,-999.0,44,0.00,,,0.00,WeatherSnoop3.0,2013-10-22 22:25:00,
2013-10-22 17:30:00,67.4,43.5,29.93,SW,225,0.0,-999.0,42,0.00,,,0.00,WeatherSnoop3.0,2013-10-22 22:30:00,
2013-10-22 17:35:00,67.6,43.7,29.93,ENE,58,1.0,-999.0,42,0.00,,,0.00,WeatherSnoop3.0,2013-10-22 22:35:00,
2013-10-22 17:40:00,67.3,43.4,29.93,East,94,0.0,-999.0,42,0.00,,,0.00,WeatherSnoop3.0,2013-10-22 22:40:00,
2013-10-22 17:45:00,67.0,43.8,29.93,ENE,77,2.0,-999.0,43,0.00,,,0.00,WeatherSnoop3.0,2013-10-22 22:45:00,
2013-10-22 17:50:00,66.6,42.8,29.93,North,5,3.0,-999.0,42,0.00,,,0.00,WeatherSnoop3.0,2013-10-22 22:50:00,
2013-10-22 17:55:00,66.2,43.0,29.93,NNE,28,6.0,-999.0,43,0.00,,,0.00,WeatherSnoop3.0,2013-10-22 22:55:00,
2013-10-22 18:00:00,65.7,43.2,29.93,NNE,32,0.0,-999.0,44,0.00,,,0.00,WeatherSnoop3.0,2013-10-22 23:00:00,
2013-10-22 18:05:00,65.2,43.3,29.93,NNE,12,0.0,-999.0,45,0.00,,,0.00,WeatherSnoop3.0,2013-10-22 23:05:00,
2013-10-22 18:10:00,64.6,43.3,29.93,NNE,18,2.0,-999.0,46,0.00,,,0.00,WeatherSnoop3.0,2013-10-22 23:10:00,
2013-10-22 18:15:00,64.1,42.9,29.93,WNW,289,1.0,-999.0,46,0.00,,,0.00,WeatherSnoop3.0,2013-10-22 23:15:00,
2013-10-22 18:20:00,63.7,43.1,29.93,NE,56,2.0,-999.0,47,0.00,,,0.00,WeatherSnoop3.0,2013-10-22 23:20:00,
2013-10-22 18:25:00,63.1,43.1,29.93,NNW,347,2.0,-999.0,48,0.00,,,0.00,WeatherSnoop3.0,2013-10-22 23:25:00,
2013-10-22 18:30:00,62.5,42.5,29.94,ENE,57,0.0,-999.0,48,0.00,,,0.00,WeatherSnoop3.0,2013-10-22 23:30:00,
2013-10-22 18:35:00,62.0,43.1,29.94,NNE,30,0.0,-999.0,50,0.00,,,0.00,WeatherSnoop3.0,2013-10-22 23:35:00,
2013-10-22 18:40:00,61.4,43.1,29.94,North,1,0.0,-999.0,51,0.00,,,0.00,WeatherSnoop3.0,2013-10-22 23:40:00,
2013-10-22 18:45:00,60.8,43.1,29.94,NNE,25,0.0,-999.0,52,0.00,,,0.00,WeatherSnoop3.0,2013-10-22 23:45:00,
2013-10-22 18:50:00,60.1,42.9,29.94,NNE,23,0.0,-999.0,53,0.00,,,0.00,WeatherSnoop3.0,2013-10-22 23:50:00,
2013-10-22 18:55:00,59.4,42.7,29.94,North,8,0.0,-999.0,54,0.00,,,0.00,WeatherSnoop3.0,2013-10-22 23:55:00,
2013-10-22 19:00:00,58.7,42.6,29.95,NE,44,0.0,-999.0,55,0.00,,,0.00,WeatherSnoop3.0,2013-10-23 00:00:00,
2013-10-22 19:05:00,58.2,42.6,29.95,NE,41,0.0,-999.0,56,0.00,,,0.00,WeatherSnoop3.0,2013-10-23 00:05:00,
2013-10-22 19:10:00,57.7,42.6,29.95,NE,41,0.0,-999.0,57,0.00,,,0.00,WeatherSnoop3.0,2013-10-23 00:10:00,
2013-10-22 19:15:00,57.3,43.1,29.95,NE,35,0.0,-999.0,59,0.00,,,0.00,WeatherSnoop3.0,2013-10-23 00:15:00,
2013-10-22 19:20:00,56.8,42.6,29.95,NE,36,0.0,-999.0,59,0.00,,,0.00,WeatherSnoop3.0,2013-10-23 00:20:00,
2013-10-22 19:25:00,56.7,43.0,29.95,NE,36,0.0,-999.0,60,0.00,,,0.00,WeatherSnoop3.0,2013-10-23 00:25:00,
2013-10-22 19:30:00,56.5,42.8,29.95,NE,40,1.0,-999.0,60,0.00,,,0.00,WeatherSnoop3.0,2013-10-23 00:30:00,
2013-10-22 19:35:00,56.3,43.0,29.95,NNE,32,2.0,-999.0,61,0.00,,,0.00,WeatherSnoop3.0,2013-10-23 00:35:00,
2013-10-22 19:40:00,56.2,42.9,29.95,NNE,25,0.0,-999.0,61,0.00,,,0.00,WeatherSnoop3.0,2013-10-23 00:40:00,
2013-10-22 19:45:00,56.0,43.2,29.96,NE,39,2.0,-999.0,62,0.00,,,0.00,WeatherSnoop3.0,2013-10-23 00:45:00,
2013-10-22 19:50:00,55.8,43.0,29.96,North,6,1.0,-999.0,62,0.00,,,0.00,WeatherSnoop3.0,2013-10-23 00:50:00,
2013-10-22 19:55:00,55.6,42.8,29.96,NE,34,1.0,-999.0,62,0.00,,,0.00,WeatherSnoop3.0,2013-10-23 00:55:00,
2013-10-22 20:00:00,55.4,42.6,29.97,NE,49,0.0,-999.0,62,0.00,,,0.00,WeatherSnoop3.0,2013-10-23 01:00:00,
2013-10-22 20:05:00,55.2,42.8,29.97,NE,34,2.0,-999.0,63,0.00,,,0.00,WeatherSnoop3.0,2013-10-23 01:05:00,
2013-10-22 20:10:00,55.0,42.6,29.97,NE,51,1.0,-999.0,63,0.00,,,0.00,WeatherSnoop3.0,2013-10-23 01:10:00,
2013-10-22 20:15:00,54.6,42.7,29.97,NE,53,0.0,-999.0,64,0.00,,,0.00,WeatherSnoop3.0,2013-10-23 01:15:00,
2013-10-22 20:20:00,54.1,42.6,29.97,NE,51,0.0,-999.0,65,0.00,,,0.00,WeatherSnoop3.0,2013-10-23 01:20:00,
2013-10-22 20:25:00,53.7,42.6,29.97,NE,51,0.0,-999.0,66,0.00,,,0.00,WeatherSnoop3.0,2013-10-23 01:25:00,
2013-10-22 20:30:00,53.3,42.6,29.97,NE,53,0.0,-999.0,67,0.00,,,0.00,WeatherSnoop3.0,2013-10-23 01:30:00,
2013-10-22 20:35:00,52.7,42.8,29.97,NE,52,0.0,-999.0,69,0.00,,,0.00,WeatherSnoop3.0,2013-10-23 01:35:00,
2013-10-22 20:40:00,52.1,42.6,29.97,NE,51,0.0,-999.0,70,0.00,,,0.00,WeatherSnoop3.0,2013-10-23 01:40:00,
2013-10-22 20:45:00,51.7,42.2,29.98,NE,51,1.0,-999.0,70,0.00,,,0.00,WeatherSnoop3.0,2013-10-23 01:45:00,
2013-10-22 20:50:00,51.4,42.3,29.98,NE,52,0.0,-999.0,71,0.00,,,0.00,WeatherSnoop3.0,2013-10-23 01:50:00,
2013-10-22 20:55:00,51.4,42.3,29.97,NE,46,0.0,-999.0,71,0.00,,,0.00,WeatherSnoop3.0,2013-10-23 01:55:00,
2013-10-22 21:00:00,51.6,42.1,29.98,NE,53,1.0,-999.0,70,0.00,,,0.00,WeatherSnoop3.0,2013-10-23 02:00:00,
2013-10-22 21:05:00,51.6,42.1,29.98,ENE,57,0.0,-999.0,70,0.00,,,0.00,WeatherSnoop3.0,2013-10-23 02:05:00,
2013-10-22 21:10:00,51.5,42.0,29.98,NE,56,0.0,-999.0,70,0.00,,,0.00,WeatherSnoop3.0,2013-10-23 02:10:00,
2013-10-22 21:15:00,51.6,42.1,29.98,NE,56,0.0,-999.0,70,0.00,,,0.00,WeatherSnoop3.0,2013-10-23 02:15:00,
2013-10-22 21:20:00,51.6,41.8,29.97,ENE,57,0.0,-999.0,69,0.00,,,0.00,WeatherSnoop3.0,2013-10-23 02:20:00,
2013-10-22 21:25:00,51.4,41.6,29.98,ENE,57,0.0,-999.0,69,0.00,,,0.00,WeatherSnoop3.0,2013-10-23 02:25:00,
2013-10-22 21:30:00,50.9,41.8,29.98,ENE,57,0.0,-999.0,71,0.00,,,0.00,WeatherSnoop3.0,2013-10-23 02:30:00,
2013-10-22 21:35:00,50.4,41.4,29.98,NE,56,0.0,-999.0,71,0.00,,,0.00,WeatherSnoop3.0,2013-10-23 02:35:00,
2013-10-22 21:40:00,50.1,41.4,29.98,ENE,57,0.0,-999.0,72,0.00,,,0.00,WeatherSnoop3.0,2013-10-23 02:40:00,
2013-10-22 21:45:00,49.9,41.2,29.98,ENE,57,0.0,-999.0,72,0.00,,,0.00,WeatherSnoop3.0,2013-10-23 02:45:00,
2013-10-22 21:50:00,50.1,41.1,29.98,ENE,57,0.0,-999.0,71,0.00,,,0.00,WeatherSnoop3.0,2013-10-23 02:50:00,
2013-10-22 21:55:00,50.4,41.4,29.98,NE,50,0.0,-999.0,71,0.00,,,0.00,WeatherSnoop3.0,2013-10-23 02:55:00,
2013-10-22 22:00:00,49.9,41.6,29.99,NE,50,0.0,-999.0,73,0.00,,,0.00,WeatherSnoop3.0,2013-10-23 03:00:00,
2013-10-22 22:05:00,49.4,41.1,29.99,NE,51,0.0,-999.0,73,0.00,,,0.00,WeatherSnoop3.0,2013-10-23 03:05:00,
2013-10-22 22:10:00,49.7,41.0,29.99,NE,50,0.0,-999.0,72,0.00,,,0.00,WeatherSnoop3.0,2013-10-23 03:10:00,
2013-10-22 22:15:00,50.2,41.2,29.99,NE,43,1.0,-999.0,71,0.00,,,0.00,WeatherSnoop3.0,2013-10-23 03:15:00,
2013-10-22 22:20:00,51.0,41.2,29.99,NNE,23,1.0,-999.0,69,0.00,,,0.00,WeatherSnoop3.0,2013-10-23 03:20:00,
2013-10-22 22:25:00,51.6,41.4,30.00,NE,43,0.0,-999.0,68,0.00,,,0.00,WeatherSnoop3.0,2013-10-23 03:25:00,
2013-10-22 22:30:00,51.8,41.2,30.00,NNE,33,1.0,-999.0,67,0.00,,,0.00,WeatherSnoop3.0,2013-10-23 03:30:00,
2013-10-22 22:35:00,51.9,41.3,30.00,NNE,23,2.0,-999.0,67,0.00,,,0.00,WeatherSnoop3.0,2013-10-23 03:35:00,
2013-10-22 22:40:00,51.8,41.2,30.00,NNW,338,2.0,-999.0,67,0.00,,,0.00,WeatherSnoop3.0,2013-10-23 03:40:00,
2013-10-22 22:45:00,51.6,41.4,30.00,ENE,63,3.0,-999.0,68,0.00,,,0.00,WeatherSnoop3.0,2013-10-23 03:45:00,
2013-10-22 22:50:00,51.3,41.1,30.00,NE,39,3.0,-999.0,68,0.00,,,0.00,WeatherSnoop3.0,2013-10-23 03:50:00,
2013-10-22 22:55:00,51.0,41.2,30.00,NE,51,0.0,-999.0,69,0.00,,,0.00,WeatherSnoop3.0,2013-10-23 03:55:00,
2013-10-22 23:00:00,50.7,40.9,30.01,NNE,12,2.0,-999.0,69,0.00,,,0.00,WeatherSnoop3.0,2013-10-23 04:00:00,
2013-10-22 23:05:00,50.5,41.1,30.01,NE,39,2.0,-999.0,70,0.00,,,0.00,WeatherSnoop3.0,2013-10-23 04:05:00,
2013-10-22 23:10:00,50.2,40.8,30.00,NE,51,0.0,-999.0,70,0.00,,,0.00,WeatherSnoop3.0,2013-10-23 04:10:00,
2013-10-22 23:15:00,49.7,40.7,30.01,NNE,23,1.0,-999.0,71,0.00,,,0.00,WeatherSnoop3.0,2013-10-23 04:15:00,
2013-10-22 23:20:00,49.2,40.6,30.02,NE,54,1.0,-999.0,72,0.00,,,0.00,WeatherSnoop3.0,2013-10-23 04:20:00,
2013-10-22 23:25:00,49.0,40.7,30.02,NNE,29,0.0,-999.0,73,0.00,,,0.00,WeatherSnoop3.0,2013-10-23 04:25:00,
2013-10-22 23:30:00,48.5,40.6,30.02,NNE,26,1.0,-999.0,74,0.00,,,0.00,WeatherSnoop3.0,2013-10-23 04:30:00,
2013-10-22 23:35:00,48.2,40.7,30.02,North,4,6.0,-999.0,75,0.00,,,0.00,WeatherSnoop3.0,2013-10-23 04:35:00,
2013-10-22 23:40:00,48.2,40.3,30.02,NNE,29,4.0,-999.0,74,0.00,,,0.00,WeatherSnoop3.0,2013-10-23 04:40:00,
2013-10-22 23:45:00,48.3,40.4,30.02,NNE,29,3.0,-999.0,74,0.00,,,0.00,WeatherSnoop3.0,2013-10-23 04:45:00,
2013-10-22 23:50:00,48.1,40.6,30.02,NNE,33,2.0,-999.0,75,0.00,,,0.00,WeatherSnoop3.0,2013-10-23 04:50:00,
2013-10-22 23:55:00,47.9,40.4,30.03,NE,39,2.0,-999.0,75,0.00,,,0.00,WeatherSnoop3.0,2013-10-23 04:55:00,